www.pogodaiklimat.ru
ПОГОДА в Муррее
Время
и дата
19:35 25.05
19:55 25.05
20:15 25.05
20:35 25.05
20:55 25.05
21:15 25.05
21:35 25.05
21:55 25.05
22:15 25.05
22:35 25.05
22:55 25.05
23:15 25.05
23:35 25.05
23:55 25.05
00:15 26.05
00:35 26.05
00:55 26.05
01:15 26.05
01:35 26.05
01:55 26.05
02:15 26.05
02:35 26.05
02:55 26.05
03:15 26.05
03:35 26.05
03:55 26.05
04:15 26.05
04:35 26.05
04:55 26.05
05:15 26.05
05:35 26.05
05:55 26.05
06:15 26.05
06:35 26.05
06:55 26.05
07:15 26.05
07:35 26.05
07:55 26.05
08:10 26.05
08:35 26.05
08:55 26.05
09:15 26.05
09:35 26.05
09:55 26.05
10:15 26.05
10:35 26.05
10:55 26.05
11:15 26.05
Ветер
(напр.,м/с)
Видим. Явления Облачность Т
(С)
Тd
(С)
f
(%)
Тe
(С)
Тes
(С)
Комфортность P
(гПа)
Po
(гПа)
Тmin
(С)
Tmax
(С)
R
(мм)
R24
(мм)
S
(см)
штиль 0 16 км ясно +24.0 +24.0 100 +33 +33 очень
душно
990.1
штиль 0 16 км ясно +23.0 +23.0 100 +32 +32 очень
душно
990.5
штиль 0 16 км ясно +23.0 +23.0 100 +32 +32 очень
душно
990.5
ЮВ 2 16 км 5/5 1440 м +23.0 +23.0 100 +32 +32 очень
душно
990.5
штиль 0 16 км 5/5 1440 м +24.0 +24.0 100 +33 +33 очень
душно
990.8
ЮВ 2 16 км ясно +23.0 +23.0 100 +32 +32 очень
душно
990.8
штиль 0 16 км 5/5 1290 м +23.0 +23.0 100 +32 +32 очень
душно
990.8
штиль 0 16 км 2/2 1290 м +22.0 +22.0 100 +29 +29 очень
душно
990.8
штиль 0 14 км ясно +22.0 +22.0 100 +29 +29 очень
душно
990.5
штиль 0 16 км ясно +22.0 +22.0 100 +29 +29 очень
душно
990.1
штиль 0 16 км ясно +22.0 +22.0 100 +29 +29 очень
душно
990.1
штиль 0 16 км ясно +22.0 +22.0 100 +29 +29 очень
душно
989.5
штиль 0 16 км 2/2 1350 м +22.0 +22.0 100 +29 +29 очень
душно
989.1
штиль 0 16 км 2/2 1350 м +22.0 +22.0 100 +29 +29 очень
душно
988.8
В 2 16 км 5/5 1050 м +22.0 +22.0 100 +29 +29 очень
душно
988.1
штиль 0 16 км 2/2 1080 м +22.0 +22.0 100 +29 +29 очень
душно
988.1
нст 2 16 км 2/2 1380 м +23.0 +23.0 100 +32 +32 очень
душно
988.1
штиль 0 16 км 2/2 1440 м +22.0 +22.0 100 +29 +29 очень
душно
987.8
штиль 0 16 км 2/2 1440 м +23.0 +23.0 100 +32 +32 очень
душно
988.5
ЮВ 2 16 км 8/8 1500 м +23.0 +23.0 100 +32 +32 очень
душно
988.5
штиль 0 16 км 10/10 1170 м +23.0 +23.0 100 +32 +32 очень
душно
988.1
нст 2 16 км 10/10 1140 м +23.0 +23.0 100 +32 +32 очень
душно
987.8
ЮВ 3 16 км 10/10 1170 м +23.0 +23.0 100 +32 +32 очень
душно
987.5
штиль 0 16 км 10/10 1170 м +23.0 +23.0 100 +32 +32 очень
душно
987.5
штиль 0 16 км 10/10 1110 м +23.0 +23.0 100 +32 +32 очень
душно
987.1
нст 2 16 км 8/8 1170 м +22.0 +22.0 100 +29 +29 очень
душно
986.8
ЮВ 4 16 км 5/5 1320 м +23.0 +23.0 100 +32 +32 очень
душно
986.5
нст 3
{6}
16 км 2/2 1380 м +23.0 +23.0 100 +32 +32 очень
душно
986.5
ЮВ 3 16 км ясно +23.0 +23.0 100 +32 +32 очень
душно
986.5
ЮВ 3 16 км ясно +23.0 +23.0 100 +32 +32 очень
душно
986.5
нст 3 14 км 8/2 1440 m
[Ac]
+23.0 +23.0 100 +32 +32 очень
душно
985.5
ЮВ 4
{7}
16 км 8/2 1440 m
[Ac]
+23.0 +23.0 100 +32 +32 очень
душно
985.8
ЮВ 5
{8}
10 км дымка 10/2 1650 m
[Ac]
+23.0 +23.0 100 +32 +32 очень
душно
985.5
ЮВ 5
{7}
6 км дымка 8/5 810 m
[Ac]
+22.0 +22.0 100 +29 +29 очень
душно
985.5
ЮВ 5
{8}
5 км дымка 10/5 1110 m
[Ac]
+22.0 +22.0 100 +29 +29 очень
душно
985.2
Ю 6
{12}
5 км дымка 10/8 240 m
[Ac]
+22.0 +22.0 100 +29 +29 очень
душно
985.8
ЮЗ 21
{29}
н/о 10/8 180 m
[Ac]
+19.0 +19.0 100 +19 +19 990.1
ЮЗ 9
{21}
2 км дымка 10/10 120 м +18.0 +18.0 100 +17 +17 989.5
ЮЗ 7
{10}
5 км дымка 10/10 120 м +18.0 +18.0 100 +17 +17 988.8
ЮВ 3 16 км 10/10 120 м +18.0 +18.0 100 +18 +18 987.5
ЮВ 2 16 км 8/5 1170 m
[Ac]
+18.0 +18.0 100 +19 +21 987.1
нст 2
{5}
16 км 5/0 2100 m
[Ac]
+19.0 +19.0 100 +21 +30 комфорт 986.5
В 2 16 км 8/0 2100 m
[Ac]
+19.0 +19.0 100 +21 +27 комфорт 986.5
штиль 0 16 км 8/0 2100 m
[Ac]
+19.0 +19.0 100 +21 +28 комфорт 986.8
штиль 0 2 км дымка 10/8 120 m
[Ac]
+19.0 +19.0 100 +21 +22 комфорт 987.5
штиль 0 6 км дымка 8/8 120 м +19.0 +20.0 100 +21 +25 комфорт 987.8
С 5
{11}
2 км дымка 10/10 120 м +19.0 +19.0 100 +20 +20 988.8
нст 3
{7}
2 км дымка 10/10 90 м +18.0 +19.0 100 +18 +18 988.1
Местоположение метеостанции Kyle-Oakley Field Airport: широта 36.6646 долгота -88.3728 высота над уровнем моря 176 м.
В архиве по умолчанию представлена погода в Муррее за последние 1-2 суток. Обновление информации о фактической погоде в базе происходит ежечасно! Архивные данные за месяц целиком и за предыдущие месяцы Вы можете получить, выбрав интересующий диапазон дат из раскрывающегося списка и нажав кнопку "Ввод!".
Внимание! Архив погоды МЕТАР в базе сайта по станциям, не включенным в климатический монитор, хранится не более 60 дней. Нет смысла пытаться выбрать более раннюю дату.
*Определитесь, кто Вы:
Внимание! Время в таблицах - местное (без учета летнего времени). Для получения всемирного времени необходимо вычесть поправку, которая равна -6 ч.
Смотрите также архив погоды в соседних городах и на ближайших метеорологических станциях:
Партнеры нашего сайта:      
Пояснения к столбцам:
  • Ветер - указаны скорость ветра в м/с - средняя за 10 мин, порывы в срок и между сроками (в фигурных скобках) и направление, откуда дует ветер: С - северный,
  • СВ - северо-восточный, В - восточный, ЮВ - юго-восточный, Ю - южный, ЮЗ - юго-западный, З - западный, СЗ - северо-западный.
  • Видимость - горизонтальная дальность видимости в метрах или километрах. При видимости от 1 до 10 км при отсутствии осадков обычно наблюдается дымка, при ухудшении видимости до 1 км и менее - туман. В сухую погоду видимость может ухудшаться дымом, пылью или мглою.
  • Явления - указаны атмосферные явления, наблюдавшиеся в срок или в последний час перед сроком; фигурными скобками обозначены явления, наблюдавшиеся между сроками (за 1-3 часа до срока); квадратными скобками обозначены град или гололедные отложения с указанием их диаметра в мм.
  • Облачность - указаны через наклонную черту общая и нижняя облачность в баллах и высота нижней границы облаков в метрах; квадратными скобками обозначены формы облаков: Ci - перистые, Cs - перисто-слоистые, Cc - перисто-кучевые, Ac - высококучевые, As - высокослоистые, Sc - слоисто-кучевые, Ns - слоисто-дождевые, Cu - кучевые, Cb - кучево-дождевые. Подробнее классификацию облаков см. в Атласе облаков (PDF).
  • T - Температура воздуха - температура, измеренная на высоте 2 м над землей.
  • Td - Температура точки росы - температура, при понижении до которой содержащийся в воздухе водяной пар достигнет насыщения.
  • f - Относительная влажность воздуха - влажноcть воздуха, измеренная на высоте 2 м над землей.
  • Te - Эффективная температура - температура, которую ощущает одетый по сезону человек в тени. Характеристика душности погоды. При расчете учитывается влияние влажности воздуха и скорости ветра на теплоощущения человека.
  • Tes - Эффективная температура на солнце - температура, которую ощущает человек, с поправкой на солнечный нагрев. Характеристика знойности погоды. Зависит от высоты солнца над горизонтом, облачности и скорости ветра. Ночью, в пасмурную погоду, а также при ветре 12 м/с и более поправка равна нулю.
  • P - Атмосферное давление - приведенное к уровню моря атмосферное давление.
  • Po - Атмосферное давление - измеренное на уровне метеостанции атмосферное давление.
  • Tmin - Минимальная температура - минимум температуры воздуха на высоте 2 м над землей.
  • Tmax - Максимальная температура - максимум температуры воздуха на высоте 2 м над землей.
  • R - Количество осадков - Количество выпавших осадков за период времени, мм. При наведении курсора мыши на число - период времени, за который выпало указанное количество осадков.
  • R24 - Количество осадков - Количество выпавших осадков за 24 часа, мм.
  • S - Снежный покров - Высота снежного покрова, см. При наведении курсора мыши на число - состояние снежного покрова и степень покрытия местности в баллах.